Zurück zum Katalog

SIRIUS XM-10

AktivKommunikationGEO
NORAD 64290·PAYLOAD·🇺🇸 United States

Gestartet Jun 7, 2025 von Cape Canaveral Space Force Station

Loading…

TLE

AktuellSource: Space-Track

Epoche: Sep 14, 2026, 13:15 UTC

1 64290U 25122A   26257.55217745 -.00000025  00000-0  00000-0 0  9999
2 64290   0.0174  94.5810 0001445 266.9702  74.6068  1.00272840  4579

Verfolge SIRIUS XM-10 in Echtzeit mit AllMySat

Download on the App Store